Location: Boston
(42.3580°N, 71.0600°W)
Time: 02:49:36
(UTC-04:00)

ISS - Pass Details

Date: 09 October 2017
Orbit: 401 x 408 km, 51.6° (Epoch: 21 October)

Event Time Altitude Azimuth Distance (km) Brightness Sun altitude
Rises 18:58:13 0° 306° (NW) 2,326 1.0 -9.4°
Reaches altitude 10° 19:00:40 10° 323° (NW) 1,466 -0.5 -9.9°
Maximum altitude 19:03:12 20° 14° (NNE) 996 -2.0 -10.3°
Enters shadow 19:05:13 13° 58° (ENE) 1,309 -1.8 -10.7°
